[[{"header":{"parameterUnit":"m.s-1","parameterCategory":2,"la1":30.2991,"la2":30.254,"lo1":-89.0895,"lo2":-89.0444,"dy":0.0017,"dx":0.0017,"nx":28,"ny":28,"refTime":"2023-08-23T03:00:00:Z","depth":"0","parameterNumber":2,"parameterNumberName":"U-component_of_CURRENTS"},"data":[0,0,0,0,0,0,0,0,0,0,0,0,0,0,0,0,0,0,0,0,0,0,0,0,0,0,0,0,0,0,0,0,0,0,0,0,0,0,0,0,0,0,0,0,0,0,0,0,0,0,0,0,0,0,0,0,0,0,0.3292,0.3292,0,0.3298,0.3298,0.3298,0.3299,0.3299,0.3299,0.3298,0.3352,0.3354,0.3355,0,0,0,0,0,0,0,0,0,0,0,0,0,0.3289,0.3289,0.3292,0.3292,0.3292,0.3298,0.3298,0.3298,0.3299,0.3299,0.3299,0.3298,0.3352,0.3354,0.3356,0,0,0,0,0,0,0,0,0,0,0,0,0,0.3292,0.3289,0.3292,0.3293,0.3293,0.3298,0.3298,0.3298,0.3299,0.3299,0.3299,0.3298,0.3351,0.3354,0.3356,0.3372,0,0,0.3363,0.3364,0,0,0,0,0,0,0,0,0.3292,0.3292,0.3292,0.3292,0.3293,0.3297,0.3317,0.3325,0.3299,0.3297,0.3298,0.3298,0.3338,0.3342,0.3343,0.3375,0.3377,0.3363,0.3364,0.3365,0.3366,0,0,0,0,0,0,0,0.3292,0.3292,0.3294,0.3292,0.3293,0.3296,0.3296,0.3318,0.3319,0.3297,0.3297,0.3297,0.3339,0.3341,0.3344,0.3378,0.3363,0.3365,0.3366,0.3367,0.3452,0.3453,0,0,0,0,0,0,0.329,0.3292,0.3294,0.3294,0.3292,0.3296,0.3296,0.3296,0.3318,0.3321,0.3297,0.3297,0.3337,0.3342,0.3346,0.3366,0.3365,0.3367,0.3369,0.3451,0.3452,0.3453,0,0,0,0,0,0,0.329,0.329,0.3294,0.3293,0.3294,0.3296,0.3296,0.3296,0.3297,0.3318,0.3322,0.3298,0.3337,0.3343,0.3377,0.3368,0.3368,0.3371,0.345,0.3451,0.3452,0.3406,0,0,0,0,0,0,0.329,0.329,0.3291,0.3293,0.3294,0.3292,0.3296,0.3297,0.3298,0.3297,0.3319,0.3324,0.3337,0.3374,0.338,0.3371,0.3372,0.3449,0.345,0.3452,0.3406,0.3405,0.3405,0,0,0,0,0,0.329,0.3286,0.3291,0.3291,0.3294,0.3292,0.3292,0.3294,0.3298,0.3295,0.3323,0.3323,0.3388,0.3377,0.3383,0.3375,0.3448,0.345,0.3452,0.3407,0.3406,0.3405,0,0,0,0,0,0,0.3269,0.3285,0.3291,0.3288,0.329,0.3292,0.3288,0.3294,0.3311,0.3314,0.3338,0.3345,0.3373,0.3389,0.3376,0.3408,0.3417,0.342,0.3381,0.338,0.3379,0.3372,0.3374,0,0,0,0,0,0.327,0.328,0.3285,0.3282,0.3282,0.3287,0.3287,0.3289,0.3303,0.3309,0.3327,0.3355,0.3386,0.3395,0.3424,0.3439,0.3456,0.3441,0.344,0.3439,0.344,0.3484,0.3486,0.3459,0.3459,0.3459,0,0,0.3263,0.327,0.3277,0.3281,0.3281,0.3278,0.3286,0.3282,0.3284,0.3315,0.3326,0.3356,0.3395,0.3414,0.3427,0.3423,0.3449,0.3441,0.344,0.3442,0.3486,0.3488,0.349,0.3461,0.346,0.346,0,0,0.3243,0.3258,0.3256,0.326,0.3262,0.3268,0.3267,0.3271,0.3276,0.3298,0.3324,0.3352,0.339,0.3409,0.3427,0.3443,0.3452,0.345,0.3427,0.3469,0.3471,0.3473,0.3463,0.3465,0.3439,0.3439,0.3439,0,0.322,0.3229,0.3252,0.3245,0.3245,0.3263,0.3252,0.3264,0.328,0.3287,0.3299,0.3364,0.3388,0.3418,0.342,0.3438,0.3452,0.342,0.3465,0.3468,0.3471,0.3461,0.3464,0.3437,0.3437,0.3438,0.3438,0,0.3207,0.3208,0.3203,0.321,0.3215,0.3208,0.3227,0.3234,0.325,0.3264,0.33,0.3342,0.3373,0.3387,0.3408,0.3436,0.3433,0.3464,0.346,0.3471,0.346,0.3463,0.3434,0.3435,0.3436,0.3436,0,0,0.3139,0.3183,0.3177,0.3179,0.3196,0.3193,0.3204,0.3214,0.3214,0.3252,0.3258,0.3318,0.3334,0.3358,0.3384,0.342,0.3436,0.3443,0.3446,0.3418,0.3494,0.3323,0.331,0.3479,0.348,0.3481,0.3465,0,0.3104,0.3105,0.3133,0.3122,0.3122,0.3149,0.3153,0.3172,0.3195,0.3207,0.3262,0.3285,0.3325,0.3332,0.3375,0.343,0.345,0.3435,0.3503,0.3503,0.3338,0.331,0.3135,0.3092,0.3468,0.3469,0.3469,0,0.3067,0.3076,0.3071,0.3087,0.3084,0.308,0.309,0.3097,0.3131,0.3151,0.3191,0.323,0.3275,0.3315,0.3404,0.3394,0.3437,0.3481,0.3483,0.3343,0.3338,0.3152,0.3084,0.298,0.3474,0.3474,0.3474,0,0.302,0.3023,0.3024,0.303,0.3052,0.3044,0.3049,0.3074,0.3076,0.3111,0.3114,0.3186,0.3206,0.3298,0.3374,0.3394,0.3467,0.3506,0.3389,0.3376,0.3249,0.3221,0.3075,0.3571,0.3571,0.3571,0.3571,0,0.2978,0.2968,0.2999,0.2998,0.2975,0.3002,0.2977,0.2998,0.3015,0.3005,0.3074,0.3076,0.3211,0.3263,0.3351,0.3349,0.3445,0.3364,0.336,0.3221,0.3193,0.3116,0.312,0.3571,0.3571,0.3571,0.3571,0,0.2934,0.2957,0.2949,0.2962,0.2957,0.2941,0.2931,0.2913,0.294,0.2928,0.2936,0.2997,0.3036,0.3145,0.3266,0.3274,0.3207,0.3313,0.3103,0.3071,0.2809,0.2818,0.2608,0.2548,0.3147,0.3143,0.3139,0,0.2924,0.2918,0.2919,0.2902,0.2901,0.2879,0.2854,0.2874,0.2852,0.287,0.2852,0.2883,0.2878,0.2947,0.298,0.3033,0.3035,0.2883,0.2881,0.2731,0.2743,0.2684,0.2649,0.2698,0.2691,0.2685,0.2681,0,0.2888,0.2883,0.2876,0.2842,0.281,0.2774,0.274,0.2719,0.2728,0.2711,0.2681,0.2681,0.2692,0.2624,0.2653,0.2691,0.268,0.2758,0.2689,0.2422,0.227,0.2229,0.2752,0.263,0.2635,0.2638,0.2641,0.2643,0.2844,0.2819,0.2795,0.2747,0.2717,0.2646,0.2568,0.2545,0.2487,0.2418,0.2494,0.2433,0.237,0.2355,0.2363,0.219,0.2302,0.212,0.2158,0.2121,0.1998,0.2352,0.217,0.2172,0.2174,0.2176,0.2178,0,0.274,0.2716,0.2692,0.2604,0.2526,0.2543,0.2459,0.2355,0.2237,0.2248,0.2195,0.2078,0.1945,0.1917,0.1737,0.1629,0.1625,0.1575,0.1499,0.1514,0.1893,0.1806,0.1429,0.1429,0.1429,0.1429,0.1429,0.143,0.2677,0.2599,0.2576,0.2415,0.2361,0.2189,0.2116,0.2008,0.1969,0.182,0.174,0.1731,0.1634,0.1422,0.1237,0.1218,0.1172,0.1037,0.1133,0.144,0.1496,0.1549,0.1464,0.1022,0.1022,0.0659,0.0656,0.0654]},{"header":{"parameterUnit":"m.s-1","parameterCategory":2,"la1":30.2991,"la2":30.254,"lo1":-89.0895,"lo2":-89.0444,"dy":0.0017,"dx":0.0017,"nx":28,"ny":28,"refTime":"2023-08-23T03:00:00:Z","depth":"0","parameterNumber":3,"parameterNumberName":"V-component_of_CURRENTS"},"data":[0,0,0,0,0,0,0,0,0,0,0,0,0,0,0,0,0,0,0,0,0,0,0,0,0,0,0,0,0,0,0,0,0,0,0,0,0,0,0,0,0,0,0,0,0,0,0,0,0,0,0,0,0,0,0,0,0,0,0.0609,0.0609,0,0.0613,0.0613,0.0613,0.0599,0.0599,0.0599,0.0599,0.0643,0.0645,0.0646,0,0,0,0,0,0,0,0,0,0,0,0,0,0.055,0.0551,0.0609,0.0609,0.0609,0.0613,0.0613,0.0613,0.0599,0.0599,0.0599,0.0599,0.0643,0.0644,0.0646,0,0,0,0,0,0,0,0,0,0,0,0,0,0.0565,0.0552,0.0609,0.0604,0.0604,0.0614,0.0613,0.0613,0.0599,0.0599,0.0599,0.0598,0.0642,0.0644,0.0646,0.0666,0,0,0.0653,0.0654,0,0,0,0,0,0,0,0,0.0564,0.0567,0.0605,0.0605,0.0605,0.0607,0.0609,0.0634,0.0599,0.0599,0.0599,0.0598,0.0637,0.0639,0.0637,0.0669,0.067,0.0653,0.0654,0.0655,0.0656,0,0,0,0,0,0,0,0.0563,0.0567,0.0608,0.0605,0.0605,0.0589,0.0591,0.0613,0.0619,0.0599,0.0599,0.0603,0.0636,0.0635,0.0638,0.0671,0.0653,0.0655,0.0656,0.0657,0.0766,0.0768,0,0,0,0,0,0,0.057,0.0566,0.0608,0.0609,0.0586,0.0591,0.0593,0.0605,0.0618,0.062,0.0603,0.0602,0.0632,0.0636,0.064,0.0699,0.0655,0.0657,0.0658,0.0765,0.0767,0.0769,0,0,0,0,0,0,0.0569,0.0574,0.0608,0.0588,0.0592,0.0593,0.0606,0.0605,0.0604,0.0621,0.0623,0.0602,0.0632,0.0637,0.0669,0.0699,0.0658,0.066,0.0763,0.0765,0.0768,0.0795,0,0,0,0,0,0,0.0567,0.0574,0.0581,0.0589,0.0594,0.0619,0.0607,0.0606,0.0608,0.0607,0.0621,0.0625,0.0632,0.0665,0.0671,0.0702,0.0662,0.0761,0.0764,0.0767,0.0792,0.0798,0.0804,0,0,0,0,0,0.0565,0.0582,0.0582,0.0587,0.0606,0.0619,0.062,0.0617,0.0608,0.0613,0.0626,0.0624,0.0689,0.0668,0.0674,0.0706,0.0759,0.0763,0.0767,0.079,0.0797,0.0804,0,0,0,0,0,0,0.0563,0.0582,0.0582,0.0605,0.0613,0.0618,0.0623,0.0619,0.063,0.063,0.0639,0.0645,0.0688,0.0694,0.0671,0.0749,0.0727,0.0732,0.0743,0.075,0.0755,0.078,0.0663,0,0,0,0,0,0.0567,0.0583,0.0595,0.0614,0.0618,0.0619,0.0622,0.0621,0.0633,0.0636,0.0651,0.0675,0.0708,0.0724,0.0751,0.0788,0.0795,0.0816,0.0821,0.0826,0.0852,0.09,0.0912,0.0781,0.0781,0.0781,0,0,0.0577,0.0585,0.0598,0.0614,0.0618,0.0638,0.062,0.0629,0.0654,0.0643,0.0681,0.0694,0.0723,0.0768,0.0789,0.0776,0.0858,0.083,0.0834,0.0858,0.0905,0.0918,0.0929,0.0783,0.0783,0.0782,0,0,0.0599,0.0607,0.0625,0.0633,0.0641,0.0648,0.0652,0.0662,0.0673,0.0709,0.0714,0.0749,0.0788,0.0821,0.0842,0.0897,0.0887,0.09,0.0949,0.0994,0.1006,0.1016,0.0998,0.1007,0.0902,0.0902,0.0902,0,0.0605,0.0631,0.0632,0.0647,0.0662,0.0657,0.0681,0.0697,0.0719,0.0748,0.0729,0.0816,0.0823,0.0902,0.0915,0.0912,0.0913,0.0915,0.1001,0.1012,0.1022,0.1002,0.1011,0.0904,0.0904,0.0904,0.0904,0,0.0639,0.0658,0.0669,0.0693,0.071,0.0727,0.0751,0.0775,0.0788,0.0812,0.0884,0.09,0.0955,0.0959,0.0952,0.1033,0.0999,0.1,0.098,0.1037,0.1012,0.102,0.0907,0.0906,0.0905,0.0905,0,0,0.0659,0.0688,0.0691,0.0712,0.0734,0.0755,0.0805,0.0858,0.0908,0.0934,0.101,0.1053,0.106,0.1086,0.1083,0.1117,0.1155,0.1086,0.1088,0.1062,0.1213,0.1149,0.1151,0.117,0.1173,0.1175,0.115,0,0.0684,0.0723,0.0733,0.0784,0.0811,0.083,0.0883,0.0931,0.0973,0.1046,0.1083,0.1147,0.111,0.1134,0.1167,0.1176,0.1188,0.116,0.1171,0.117,0.1102,0.1164,0.11,0.1071,0.1159,0.116,0.1161,0,0.0717,0.0737,0.0785,0.0841,0.0855,0.0888,0.0976,0.1022,0.1117,0.1152,0.1221,0.1247,0.1312,0.1266,0.1312,0.1293,0.1259,0.1248,0.1247,0.1195,0.1126,0.104,0.1084,0.1009,0.1175,0.1174,0.1173,0,0.074,0.0781,0.0822,0.0837,0.0896,0.0932,0.0972,0.1058,0.1118,0.1223,0.1278,0.1353,0.1396,0.1401,0.1365,0.1346,0.1398,0.1366,0.1269,0.126,0.1216,0.12,0.1192,0.1397,0.1397,0.1397,0.1397,0,0.077,0.0803,0.0834,0.0857,0.092,0.0955,0.1042,0.1096,0.1193,0.1281,0.1331,0.1412,0.1436,0.1462,0.1413,0.137,0.1432,0.1298,0.1274,0.1216,0.1202,0.1143,0.1125,0.1396,0.1396,0.1397,0.1397,0,0.0792,0.0812,0.0859,0.0911,0.0933,0.0978,0.1067,0.1138,0.1216,0.1335,0.1371,0.1472,0.1507,0.1493,0.1499,0.1424,0.1342,0.1347,0.1244,0.121,0.1041,0.1027,0.1043,0.102,0.1244,0.1243,0.1242,0,0.081,0.0832,0.0886,0.0915,0.0937,0.1004,0.1062,0.1146,0.1222,0.137,0.1434,0.1507,0.1566,0.1536,0.144,0.1346,0.13,0.1195,0.1159,0.1044,0.1013,0.1018,0.0999,0.1084,0.1081,0.1079,0.1078,0,0.0832,0.0844,0.0878,0.0934,0.0987,0.1058,0.1141,0.12,0.1313,0.1404,0.1521,0.1576,0.1556,0.1469,0.1338,0.1257,0.1142,0.115,0.1089,0.0947,0.0902,0.0862,0.104,0.1061,0.1062,0.1064,0.1065,0.1065,0.0843,0.0862,0.0901,0.0958,0.1021,0.1105,0.1154,0.1247,0.1356,0.1474,0.1544,0.1606,0.1474,0.1308,0.1202,0.0944,0.1024,0.0852,0.0856,0.088,0.0842,0.0953,0.0917,0.0918,0.0919,0.0919,0.092,0,0.0848,0.0874,0.0926,0.0993,0.1054,0.1095,0.1204,0.1246,0.1345,0.146,0.1536,0.1473,0.1299,0.1119,0.0803,0.0667,0.0647,0.0606,0.0606,0.061,0.0746,0.0721,0.0571,0.0571,0.0571,0.0572,0.0572,0.0572,0.0856,0.0888,0.0916,0.1006,0.1054,0.1119,0.117,0.1235,0.1314,0.1371,0.1384,0.1414,0.1247,0.0812,0.0511,0.0455,0.0411,0.039,0.0414,0.0485,0.0508,0.0531,0.0502,0.031,0.0309,0.0261,0.0261,0.026]}],[{"header":{"parameterUnit":"m.s-1","parameterCategory":2,"la1":30.2991,"la2":30.254,"lo1":-89.0895,"lo2":-89.0444,"dy":0.0017,"dx":0.0017,"nx":28,"ny":28,"refTime":"2023-08-23T03:00:00:Z","depth":"2","parameterNumber":2,"parameterNumberName":"U-component_of_CURRENTS"},"data":[0,0,0,0,0,0,0,0,0,0,0,0,0,0,0,0,0,0,0,0,0,0,0,0,0,0,0,0,0,0,0,0,0,0,0,0,0,0,0,0,0,0,0,0,0,0,0,0,0,0,0,0,0,0,0,0,0,0,0.1825,0.1826,0,0.1856,0.1856,0.1856,0.194,0.1942,0.1944,0.1947,0.2064,0.2065,0.2066,0,0,0,0,0,0,0,0,0,0,0,0,0,0.1735,0.1737,0.1825,0.1826,0.1827,0.1856,0.1856,0.1856,0.1939,0.1942,0.1945,0.1948,0.2063,0.2065,0.2066,0,0,0,0,0,0,0,0,0,0,0,0,0,0.1766,0.1737,0.1825,0.1876,0.1881,0.1856,0.1856,0.1856,0.1939,0.1942,0.1946,0.1949,0.2063,0.2065,0.2066,0.2008,0,0,0.2071,0.2071,0,0,0,0,0,0,0,0,0.1765,0.1769,0.1868,0.1872,0.1878,0.1902,0.1868,0.1913,0.1938,0.1912,0.1947,0.1951,0.2019,0.2024,0.2014,0.2013,0.2018,0.2071,0.2072,0.2072,0.2073,0,0,0,0,0,0,0,0.1763,0.1768,0.1833,0.1868,0.1875,0.1862,0.1871,0.1875,0.1943,0.1914,0.1922,0.1932,0.2022,0.2012,0.2018,0.202,0.2071,0.2072,0.2073,0.2074,0.2184,0.2186,0,0,0,0,0,0,0.1771,0.1766,0.1832,0.1834,0.1834,0.1862,0.1871,0.1887,0.1942,0.1954,0.1929,0.1936,0.2008,0.2016,0.2022,0.2127,0.2072,0.2074,0.2075,0.2182,0.2184,0.2187,0,0,0,0,0,0,0.1769,0.1776,0.183,0.1804,0.1811,0.1861,0.1877,0.1886,0.1926,0.1953,0.1967,0.1967,0.2011,0.202,0.2073,0.2126,0.2075,0.2076,0.218,0.2183,0.2186,0.2227,0,0,0,0,0,0,0.1766,0.1775,0.1792,0.1805,0.1813,0.1848,0.1875,0.1884,0.1926,0.1937,0.1988,0.2,0.2014,0.207,0.2074,0.2127,0.2077,0.2177,0.2181,0.2185,0.2223,0.2231,0.2238,0,0,0,0,0,0.1762,0.1777,0.1792,0.1801,0.1834,0.1849,0.1852,0.1894,0.1925,0.1942,0.1986,0.2001,0.2099,0.2072,0.2076,0.2131,0.2175,0.218,0.2184,0.222,0.223,0.2238,0,0,0,0,0,0,0.1756,0.1788,0.1805,0.1832,0.1853,0.1866,0.1886,0.1909,0.195,0.1975,0.2005,0.2018,0.2087,0.2097,0.2068,0.2177,0.2148,0.2153,0.2174,0.2183,0.219,0.2203,0.2078,0,0,0,0,0,0.1757,0.1772,0.1802,0.1823,0.184,0.1865,0.188,0.1908,0.1942,0.1965,0.2004,0.2053,0.2095,0.2132,0.2158,0.2202,0.2201,0.2249,0.2256,0.2262,0.2278,0.2326,0.2339,0.2202,0.2201,0.2201,0,0,0.1754,0.1777,0.1784,0.1821,0.1841,0.1868,0.1884,0.1918,0.1954,0.1968,0.2039,0.2071,0.211,0.217,0.2205,0.2196,0.2294,0.2268,0.2273,0.2286,0.2332,0.2345,0.2357,0.2205,0.2204,0.2204,0,0,0.1757,0.1786,0.1804,0.1826,0.1868,0.1884,0.1905,0.1944,0.1983,0.2034,0.2067,0.2134,0.2189,0.2235,0.2263,0.2325,0.2323,0.2346,0.2405,0.2451,0.2462,0.2472,0.245,0.2459,0.2361,0.2362,0.2362,0,0.1776,0.1788,0.181,0.1841,0.1864,0.1901,0.1931,0.1963,0.2017,0.2051,0.2076,0.2188,0.2225,0.2306,0.2346,0.2344,0.2346,0.2364,0.2459,0.247,0.248,0.2455,0.2463,0.2364,0.2364,0.2364,0.2363,0,0.1776,0.1807,0.1822,0.1873,0.19,0.1926,0.1978,0.2023,0.2078,0.2113,0.2211,0.2261,0.234,0.2367,0.2383,0.248,0.2447,0.2451,0.2431,0.2496,0.2465,0.2473,0.2368,0.2367,0.2366,0.2365,0,0,0.1791,0.182,0.1831,0.1856,0.1918,0.1939,0.2008,0.207,0.2129,0.2202,0.2281,0.2378,0.2421,0.2457,0.2491,0.2546,0.261,0.2544,0.2545,0.2512,0.2669,0.2452,0.2438,0.2636,0.2638,0.264,0.2605,0,0.1801,0.1829,0.1852,0.1902,0.1928,0.1984,0.2042,0.2108,0.2179,0.2261,0.2341,0.2427,0.245,0.2509,0.257,0.2612,0.264,0.2616,0.2622,0.2621,0.2413,0.2444,0.2292,0.2232,0.2612,0.2614,0.2614,0,0.1803,0.1821,0.1852,0.1915,0.1937,0.1986,0.2084,0.2142,0.2257,0.2317,0.242,0.2478,0.2591,0.2596,0.2695,0.2682,0.2686,0.2698,0.2697,0.249,0.242,0.224,0.2231,0.2627,0.2626,0.2625,0.2624,0,0.1768,0.1831,0.1845,0.1865,0.1943,0.1997,0.2061,0.2171,0.2233,0.2369,0.2428,0.2549,0.2629,0.2682,0.2723,0.2727,0.2788,0.2787,0.2575,0.2557,0.2425,0.239,0.2833,0.2833,0.2833,0.2833,0.2833,0,0.175,0.1774,0.184,0.1848,0.192,0.1989,0.2089,0.2167,0.2285,0.2354,0.2468,0.2528,0.2666,0.2713,0.2731,0.2661,0.2792,0.2579,0.2544,0.2426,0.2393,0.2747,0.2738,0.2832,0.2832,0.2833,0.2833,0,0.1711,0.1728,0.1775,0.1862,0.1902,0.1966,0.2105,0.217,0.2281,0.2376,0.2424,0.2546,0.2582,0.2642,0.2711,0.2642,0.2614,0.2547,0.2356,0.2296,0.2344,0.2338,0.2305,0.2298,0.2291,0.2286,0.2281,0,0.1681,0.17,0.179,0.1832,0.1885,0.1987,0.2054,0.217,0.2228,0.2358,0.2383,0.2458,0.2441,0.2417,0.2361,0.2289,0.243,0.2074,0.2044,0.2326,0.2296,0.23,0.2303,0.1886,0.1878,0.1872,0.1867,0,0.1675,0.1717,0.1756,0.183,0.1903,0.1973,0.2073,0.2099,0.2212,0.2255,0.2288,0.2278,0.2219,0.206,0.1945,0.1895,0.2073,0.1934,0.2337,0.201,0.1919,0.1893,0.1912,0.1813,0.1819,0.1823,0.1825,0.1828,0.1699,0.1727,0.1782,0.1854,0.1921,0.1958,0.1987,0.2028,0.2058,0.2032,0.2067,0.1932,0.1888,0.1578,0.1522,0.1503,0.1626,0.1577,0.1603,0.1634,0.1559,0.1458,0.1249,0.1251,0.1253,0.1255,0.1256,0,0.1713,0.1753,0.1809,0.186,0.1895,0.1961,0.1994,0.1937,0.1896,0.1787,0.1707,0.1407,0.123,0.1241,0.111,0.1047,0.1129,0.1023,0.116,0.121,0.1256,0.1171,0.0754,0.0753,0.0751,0.075,0,0,0.1727,0.175,0.1761,0.1813,0.1876,0.1891,0.1897,0.1751,0.1626,0.1368,0.1214,0.1081,0.1122,0.0887,0.086,0.0806,0.1011,0.0768,0.1165,0.1374,0.142,0.1557,0.1476,0,0,0,0,0]},{"header":{"parameterUnit":"m.s-1","parameterCategory":2,"la1":30.2991,"la2":30.254,"lo1":-89.0895,"lo2":-89.0444,"dy":0.0017,"dx":0.0017,"nx":28,"ny":28,"refTime":"2023-08-23T03:00:00:Z","depth":"2","parameterNumber":3,"parameterNumberName":"V-component_of_CURRENTS"},"data":[0,0,0,0,0,0,0,0,0,0,0,0,0,0,0,0,0,0,0,0,0,0,0,0,0,0,0,0,0,0,0,0,0,0,0,0,0,0,0,0,0,0,0,0,0,0,0,0,0,0,0,0,0,0,0,0,0,0,-0.0383,-0.0383,0,-0.04,-0.04,-0.04,-0.0434,-0.0435,-0.0435,-0.0436,-0.0499,-0.05,-0.0501,0,0,0,0,0,0,0,0,0,0,0,0,0,-0.0355,-0.0356,-0.0383,-0.0383,-0.0384,-0.04,-0.04,-0.04,-0.0434,-0.0435,-0.0436,-0.0437,-0.0498,-0.05,-0.0501,0,0,0,0,0,0,0,0,0,0,0,0,0,-0.0369,-0.0356,-0.0383,-0.0403,-0.0405,-0.04,-0.04,-0.04,-0.0434,-0.0435,-0.0436,-0.0437,-0.0498,-0.05,-0.0501,-0.0488,0,0,-0.0505,-0.0506,0,0,0,0,0,0,0,0,-0.0368,-0.037,-0.04,-0.0402,-0.0404,-0.0417,-0.0413,-0.0432,-0.0433,-0.0422,-0.0436,-0.0437,-0.0475,-0.0478,-0.0478,-0.0491,-0.0494,-0.0506,-0.0507,-0.0507,-0.0508,0,0,0,0,0,0,0,-0.0367,-0.0369,-0.0389,-0.04,-0.0402,-0.0402,-0.0406,-0.0417,-0.0443,-0.0423,-0.0426,-0.0428,-0.0477,-0.0476,-0.048,-0.0495,-0.0506,-0.0507,-0.0508,-0.0508,-0.0537,-0.0537,0,0,0,0,0,0,-0.0366,-0.0368,-0.0389,-0.039,-0.0389,-0.0402,-0.0406,-0.0411,-0.0442,-0.0447,-0.0427,-0.043,-0.0473,-0.0478,-0.0482,-0.0497,-0.0507,-0.0509,-0.0509,-0.0537,-0.0537,-0.0537,0,0,0,0,0,0,-0.0366,-0.0368,-0.0388,-0.038,-0.0382,-0.0402,-0.0407,-0.0411,-0.0429,-0.0444,-0.0451,-0.0444,-0.0474,-0.048,-0.0494,-0.0499,-0.0509,-0.0511,-0.0537,-0.0537,-0.0537,-0.0509,0,0,0,0,0,0,-0.0365,-0.0368,-0.0375,-0.038,-0.0383,-0.0389,-0.0406,-0.041,-0.0428,-0.0432,-0.0461,-0.0466,-0.0475,-0.0492,-0.0496,-0.0501,-0.0512,-0.0538,-0.0537,-0.0537,-0.051,-0.0508,-0.0506,0,0,0,0,0,-0.0364,-0.0367,-0.0376,-0.0379,-0.0392,-0.0389,-0.0391,-0.0407,-0.0428,-0.043,-0.0447,-0.0467,-0.0494,-0.0492,-0.0497,-0.0503,-0.0538,-0.0537,-0.0537,-0.0511,-0.0509,-0.0506,0,0,0,0,0,0,-0.0347,-0.0371,-0.0381,-0.0389,-0.0392,-0.0396,-0.0402,-0.0415,-0.0429,-0.0442,-0.046,-0.0466,-0.0481,-0.0494,-0.0493,-0.0511,-0.0521,-0.0522,-0.05,-0.0498,-0.0496,-0.0478,-0.0513,0,0,0,0,0,-0.0349,-0.0367,-0.0375,-0.038,-0.0386,-0.0398,-0.0403,-0.0414,-0.0424,-0.0433,-0.0453,-0.0472,-0.0479,-0.0491,-0.0501,-0.0509,-0.0497,-0.0518,-0.0516,-0.0514,-0.0502,-0.0475,-0.0469,-0.0536,-0.0536,-0.0536,0,0,-0.034,-0.0358,-0.0366,-0.0379,-0.0387,-0.0381,-0.0404,-0.0414,-0.041,-0.0437,-0.0449,-0.0467,-0.0479,-0.0485,-0.0494,-0.05,-0.0489,-0.0514,-0.0512,-0.0501,-0.0474,-0.0467,-0.0461,-0.0536,-0.0536,-0.0536,0,0,-0.0324,-0.0351,-0.0358,-0.0362,-0.0378,-0.0382,-0.0388,-0.0403,-0.0415,-0.0424,-0.0439,-0.0453,-0.0479,-0.0476,-0.0479,-0.0472,-0.0478,-0.0491,-0.0468,-0.0441,-0.0435,-0.043,-0.0405,-0.0398,-0.0491,-0.0491,-0.0491,0,-0.0319,-0.0323,-0.0354,-0.0354,-0.0355,-0.0382,-0.0372,-0.038,-0.0397,-0.0402,-0.0429,-0.0445,-0.0467,-0.0449,-0.0453,-0.0467,-0.0454,-0.0476,-0.0437,-0.0431,-0.0426,-0.0402,-0.0394,-0.049,-0.049,-0.049,-0.049,0,-0.0293,-0.0304,-0.0306,-0.0318,-0.0321,-0.0321,-0.0332,-0.0344,-0.0372,-0.038,-0.0389,-0.0407,-0.0415,-0.0429,-0.0444,-0.0419,-0.0423,-0.0435,-0.0439,-0.0417,-0.0394,-0.0386,-0.0488,-0.0488,-0.0489,-0.0489,0,0,-0.0273,-0.0288,-0.0289,-0.0293,-0.0306,-0.0305,-0.0302,-0.0303,-0.0304,-0.033,-0.0316,-0.0342,-0.0363,-0.0367,-0.0384,-0.037,-0.0334,-0.0391,-0.039,-0.036,-0.0274,-0.0293,-0.0286,-0.0339,-0.0338,-0.0337,-0.0273,0,-0.0247,-0.0236,-0.025,-0.0238,-0.0236,-0.0258,-0.0251,-0.0259,-0.0278,-0.0273,-0.0288,-0.0287,-0.0334,-0.0339,-0.0331,-0.0325,-0.0312,-0.035,-0.0306,-0.0305,-0.0318,-0.0277,-0.0272,-0.0217,-0.0265,-0.0264,-0.0263,0,-0.0221,-0.0219,-0.0201,-0.0211,-0.0212,-0.0211,-0.0214,-0.0212,-0.0211,-0.0218,-0.0218,-0.0231,-0.021,-0.0256,-0.0227,-0.0249,-0.0262,-0.0263,-0.0261,-0.028,-0.0309,-0.0247,-0.02,-0.025,-0.0251,-0.0252,-0.0253,0,-0.0197,-0.0192,-0.0179,-0.0179,-0.0185,-0.0192,-0.02,-0.0207,-0.0195,-0.018,-0.0153,-0.0151,-0.0125,-0.0137,-0.0149,-0.0188,-0.0105,-0.0157,-0.0183,-0.0184,-0.0171,-0.0174,-0.0135,-0.0135,-0.0135,-0.0135,-0.0135,0,-0.0176,-0.0175,-0.0174,-0.0172,-0.0165,-0.018,-0.0176,-0.018,-0.0158,-0.0116,-0.0127,-0.0069,-0.0094,-0.0057,-0.0099,-0.0097,-0.0063,-0.0161,-0.0162,-0.0164,-0.0167,-0.0193,-0.0201,-0.0133,-0.0133,-0.0134,-0.0134,0,-0.0179,-0.0169,-0.0162,-0.016,-0.0161,-0.0167,-0.0163,-0.0147,-0.0126,-0.0059,-0.0039,0.0016,0.0076,0.006,0.0069,-0.0015,-0.0024,-0.0036,-0.0037,-0.0041,-0.0141,-0.0148,-0.0073,-0.0073,-0.0073,-0.0073,-0.0073,0,-0.0186,-0.0178,-0.0159,-0.015,-0.0162,-0.0164,-0.0153,-0.0139,-0.0101,0.0002,0.0059,0.014,0.0233,0.0247,0.0134,0.0084,0.0057,0.0002,-0.0088,-0.0122,-0.0131,-0.0138,-0.0145,-0.0055,-0.0055,-0.0055,-0.0055,0,-0.0201,-0.0192,-0.018,-0.0152,-0.0141,-0.0116,-0.0097,-0.005,0.0004,0.0104,0.0253,0.0342,0.0356,0.0324,0.0221,0.0155,0.0002,-0.0002,0.0007,-0.0086,-0.0104,-0.0114,-0.0121,-0.0054,-0.0054,-0.0054,-0.0054,-0.0054,-0.0216,-0.0207,-0.0175,-0.0155,-0.0123,-0.0064,-0.0031,0.0046,0.0157,0.0321,0.0386,0.0518,0.042,0.0314,0.0224,0.0068,0.0039,-0.0057,-0.0057,-0.0057,-0.0082,-0.01,-0.0052,-0.0052,-0.0053,-0.0053,-0.0053,0,-0.022,-0.0207,-0.0181,-0.0132,-0.0078,-0.0069,0.002,0.0091,0.0253,0.0404,0.0556,0.0503,0.0475,0.0374,0.014,-0.0006,-0.0022,-0.0041,-0.0038,-0.0039,-0.004,-0.0063,-0.0029,-0.0029,-0.0029,-0.0029,0,0,-0.022,-0.0189,-0.0169,-0.0092,-0.0058,0.0016,0.0076,0.021,0.032,0.0508,0.0584,0.0657,0.0506,0.0339,0.0185,0.0081,0.0048,0.0058,0.0045,0.0066,0.0067,-0.0049,-0.0086,0,0,0,0,0]}],[{"header":{"parameterUnit":"m.s-1","parameterCategory":2,"la1":30.2991,"la2":30.254,"lo1":-89.0895,"lo2":-89.0444,"dy":0.0017,"dx":0.0017,"nx":28,"ny":28,"refTime":"2023-08-23T03:00:00:Z","depth":"4","parameterNumber":2,"parameterNumberName":"U-component_of_CURRENTS"},"data":[0,0,0,0,0,0,0,0,0,0,0,0,0,0,0,0,0,0,0,0,0,0,0,0,0,0,0,0,0,0,0,0,0,0,0,0,0,0,0,0,0,0,0,0,0,0,0,0,0,0,0,0,0,0,0,0,0,0,0.0297,0.0297,0,0.0298,0.0299,0.0299,0.0329,0.0329,0.033,0.033,0.0333,0.0332,0.0332,0,0,0,0,0,0,0,0,0,0,0,0,0,0.0336,0.0335,0.0297,0.0297,0.0296,0.0298,0.0299,0.0299,0.0329,0.0329,0.033,0.0331,0.0333,0.0333,0.0332,0,0,0,0,0,0,0,0,0,0,0,0,0,0.0329,0.0335,0.0297,0.0309,0.031,0.0298,0.0299,0.0299,0.0329,0.0329,0.033,0.0331,0.0333,0.0333,0.0332,0.0313,0,0,0.033,0.033,0,0,0,0,0,0,0,0,0.033,0.0328,0.0308,0.0308,0.0309,0.0312,0.0313,0.0303,0.0329,0.0325,0.033,0.0331,0.0323,0.0324,0.0326,0.0314,0.0314,0.033,0.033,0.0329,0.0329,0,0,0,0,0,0,0,0.033,0.0328,0.0301,0.0307,0.0308,0.032,0.032,0.0312,0.0322,0.0325,0.0327,0.0322,0.0324,0.0327,0.0327,0.0314,0.033,0.033,0.0329,0.0329,0.0335,0.0336,0,0,0,0,0,0,0.0322,0.0329,0.03,0.03,0.0318,0.0319,0.0319,0.0313,0.0322,0.0324,0.0321,0.0323,0.0328,0.0327,0.0327,0.0368,0.0329,0.0329,0.0329,0.0335,0.0335,0.0336,0,0,0,0,0,0,0.0323,0.0319,0.03,0.0312,0.031,0.0317,0.031,0.0312,0.0333,0.0319,0.0321,0.0341,0.0328,0.0328,0.0342,0.0366,0.0329,0.0328,0.0334,0.0335,0.0336,0.041,0,0,0,0,0,0,0.0324,0.032,0.0318,0.0312,0.0309,0.0309,0.0309,0.0312,0.0326,0.0329,0.0336,0.0336,0.0329,0.0343,0.0341,0.0364,0.0328,0.0333,0.0334,0.0335,0.0407,0.0413,0.0418,0,0,0,0,0,0.0325,0.0319,0.0318,0.0314,0.0304,0.0309,0.031,0.0319,0.0326,0.034,0.0348,0.0337,0.0347,0.0343,0.0341,0.0365,0.0333,0.0334,0.0335,0.0404,0.0412,0.0418,0,0,0,0,0,0,0.0335,0.032,0.0319,0.0309,0.0315,0.0313,0.032,0.0328,0.0344,0.0354,0.0345,0.0345,0.0367,0.035,0.0345,0.0367,0.0337,0.0338,0.039,0.0397,0.0403,0.0443,0.0327,0,0,0,0,0,0.0333,0.0325,0.0321,0.0314,0.0317,0.0323,0.0327,0.0339,0.0346,0.0356,0.036,0.0361,0.0365,0.037,0.0368,0.0379,0.0375,0.0391,0.0396,0.0402,0.0431,0.0433,0.0442,0.034,0.034,0.034,0,0,0.0335,0.0324,0.0321,0.0316,0.032,0.0331,0.0329,0.0345,0.0362,0.0351,0.0379,0.0383,0.0372,0.0392,0.0399,0.0385,0.0427,0.0403,0.0408,0.0435,0.0435,0.0445,0.0454,0.034,0.034,0.034,0,0,0.0329,0.0327,0.0319,0.0328,0.0336,0.0346,0.0356,0.037,0.0386,0.0409,0.0409,0.0434,0.0429,0.044,0.044,0.0473,0.0457,0.0465,0.0532,0.0532,0.0541,0.0549,0.0554,0.0562,0.0469,0.0469,0.0469,0,0.0338,0.032,0.0322,0.0322,0.0335,0.0356,0.0372,0.0386,0.0408,0.0425,0.0427,0.0455,0.0456,0.0482,0.0515,0.049,0.0491,0.0508,0.0542,0.055,0.0557,0.056,0.0568,0.0473,0.0472,0.0472,0.0472,0,0.0323,0.0322,0.0323,0.0332,0.0353,0.0371,0.0395,0.0421,0.0447,0.0466,0.0506,0.0516,0.0537,0.0541,0.0552,0.0603,0.0588,0.055,0.053,0.0572,0.0572,0.0579,0.0478,0.0477,0.0476,0.0475,0,0,0.0319,0.0314,0.0317,0.0324,0.0365,0.0377,0.0418,0.0457,0.0485,0.052,0.0561,0.06,0.0624,0.0628,0.0634,0.0663,0.0725,0.0653,0.0651,0.067,0.0741,0.0682,0.0683,0.0697,0.0698,0.07,0.0721,0,0.0315,0.0312,0.032,0.0343,0.0356,0.0396,0.0431,0.0476,0.0516,0.0562,0.0596,0.0636,0.0645,0.0675,0.0707,0.0719,0.0748,0.0724,0.0689,0.0688,0.064,0.069,0.0705,0.0726,0.0727,0.0728,0.0729,0,0.0301,0.0304,0.032,0.035,0.0361,0.0389,0.0459,0.0492,0.0564,0.0598,0.0655,0.0683,0.0754,0.0745,0.0792,0.0779,0.0789,0.0792,0.079,0.0721,0.0642,0.0673,0.0741,0.074,0.0739,0.0738,0.0738,0,0.0288,0.0305,0.0318,0.033,0.0373,0.04,0.044,0.0512,0.0553,0.0636,0.0682,0.0736,0.0782,0.0799,0.0826,0.082,0.0865,0.0826,0.0776,0.0771,0.0784,0.0775,0.0866,0.0866,0.0866,0.0866,0.0866,0,0.0275,0.0282,0.0313,0.0315,0.0353,0.04,0.0457,0.0496,0.0584,0.0638,0.0708,0.0751,0.0807,0.0836,0.0843,0.0833,0.0861,0.0816,0.0781,0.0812,0.0807,0.0789,0.078,0.0867,0.0867,0.0866,0.0866,0,0.0245,0.0262,0.027,0.0314,0.034,0.037,0.0462,0.05,0.0587,0.0664,0.0701,0.0787,0.0819,0.0843,0.0872,0.0845,0.0836,0.0821,0.0872,0.0834,0.0743,0.0737,0.0776,0.0775,0.0773,0.0772,0.0771,0,0.0216,0.022,0.0258,0.0276,0.0295,0.0359,0.0405,0.0496,0.0539,0.0666,0.0691,0.0773,0.0815,0.0806,0.0828,0.0817,0.0805,0.0801,0.0785,0.0777,0.0739,0.0735,0.0731,0.0769,0.0768,0.0768,0.0768,0,0.017,0.0187,0.0195,0.0235,0.0275,0.0322,0.0391,0.0421,0.053,0.0615,0.0681,0.0724,0.076,0.0774,0.0777,0.0762,0.0804,0.0785,0.0788,0.0773,0.0768,0.073,0.0728,0.0762,0.0763,0.0764,0.0764,0,0.0133,0.0133,0.0155,0.0191,0.023,0.0265,0.0315,0.0381,0.0445,0.0585,0.0598,0.0678,0.0751,0.0744,0.0735,0.0729,0.072,0.07,0.0707,0.0713,0.0681,0.0664,0.0621,0,0,0,0,0,0.0103,0.0107,0.0118,0.0148,0.0181,0.0216,0.0292,0.0348,0.0452,0.0483,0.0549,0.0581,0.0622,0.0652,0.0631,0.0682,0.07,0.0654,0.0674,0.0734,0.074,0.0708,0,0,0,0,0,0,0.0082,0.0092,0.0099,0.0107,0.0122,0.0168,0.0211,0.0289,0.0314,0.0422,0.0439,0.0538,0.0565,0.0621,0.0615,0.0624,0.0624,0.0703,0.0702,0.0731,0.0736,0.0741,0.071,0,0,0,0,0]},{"header":{"parameterUnit":"m.s-1","parameterCategory":2,"la1":30.2991,"la2":30.254,"lo1":-89.0895,"lo2":-89.0444,"dy":0.0017,"dx":0.0017,"nx":28,"ny":28,"refTime":"2023-08-23T03:00:00:Z","depth":"4","parameterNumber":3,"parameterNumberName":"V-component_of_CURRENTS"},"data":[0,0,0,0,0,0,0,0,0,0,0,0,0,0,0,0,0,0,0,0,0,0,0,0,0,0,0,0,0,0,0,0,0,0,0,0,0,0,0,0,0,0,0,0,0,0,0,0,0,0,0,0,0,0,0,0,0,0,0.0126,0.0126,0,0.0105,0.0104,0.0104,0.008,0.008,0.0079,0.0079,0.0025,0.0023,0.0022,0,0,0,0,0,0,0,0,0,0,0,0,0,0.0102,0.0103,0.0126,0.0126,0.0126,0.0105,0.0104,0.0104,0.008,0.008,0.0079,0.0079,0.0025,0.0024,0.0022,0,0,0,0,0,0,0,0,0,0,0,0,0,0.0098,0.0103,0.0126,0.0112,0.0111,0.0105,0.0104,0.0104,0.008,0.008,0.0079,0.0079,0.0026,0.0024,0.0022,0.0016,0,0,0.0016,0.0015,0,0,0,0,0,0,0,0,0.0099,0.0099,0.0115,0.0113,0.0112,0.0096,0.0076,0.0073,0.008,0.009,0.0079,0.0079,0.0047,0.0043,0.0038,0.0014,0.0012,0.0016,0.0015,0.0014,0.0013,0,0,0,0,0,0,0,0.0099,0.01,0.0116,0.0114,0.0113,0.0092,0.0092,0.0075,0.0068,0.0089,0.0088,0.0088,0.0045,0.004,0.0036,0.0011,0.0016,0.0014,0.0013,0.0012,-0.0017,-0.0017,0,0,0,0,0,0,0.0108,0.01,0.0116,0.0115,0.0106,0.0093,0.0093,0.01,0.0069,0.0065,0.0088,0.0087,0.0043,0.0039,0.0034,0.0027,0.0014,0.0012,0.0011,-0.0018,-0.0017,-0.0017,0,0,0,0,0,0,0.0107,0.011,0.0117,0.0108,0.0108,0.0095,0.0103,0.01,0.0095,0.0069,0.0064,0.0087,0.0043,0.0037,0.0028,0.0025,0.0011,0.001,-0.0018,-0.0017,-0.0017,0.0011,0,0,0,0,0,0,0.0107,0.011,0.0115,0.0109,0.0109,0.0117,0.0103,0.01,0.0096,0.0094,0.0066,0.0061,0.0042,0.0031,0.0026,0.0022,0.0008,-0.0018,-0.0018,-0.0017,0.001,0.0013,0.0015,0,0,0,0,0,0.0106,0.0113,0.0116,0.0117,0.0118,0.0118,0.0116,0.0103,0.0097,0.0097,0.0083,0.0062,0.0031,0.003,0.0024,0.0019,-0.0019,-0.0018,-0.0017,0.0009,0.0012,0.0015,0,0,0,0,0,0,0.0103,0.0112,0.0114,0.0123,0.0124,0.0114,0.0114,0.0107,0.0096,0.0093,0.0068,0.0062,0.0052,0.0036,0.0035,0.0014,0.0002,0.0001,0.0024,0.0026,0.0029,0.0026,0.0007,0,0,0,0,0,0.0108,0.0116,0.0121,0.0128,0.0132,0.0125,0.0122,0.0116,0.0107,0.0102,0.0086,0.0067,0.0051,0.004,0.0025,0.0014,-0.0015,0.0007,0.001,0.0012,0.0006,-0.0047,-0.005,-0.0014,-0.0014,-0.0014,0,0,0.0109,0.0114,0.0119,0.0128,0.0128,0.0134,0.0122,0.0123,0.0121,0.0097,0.0091,0.0077,0.0051,0.0041,0.0034,0.0026,-0.0008,0.0013,0.0015,0.0008,-0.0046,-0.005,-0.0053,-0.0014,-0.0014,-0.0014,0,0,0.0115,0.0123,0.0133,0.0136,0.0141,0.0139,0.0142,0.0139,0.0132,0.0129,0.0109,0.0093,0.0076,0.0052,0.0038,0.0045,0.0009,0.0044,0.005,-0.0001,-0.0004,-0.0008,-0.003,-0.0036,0.0043,0.0043,0.0043,0,0.0114,0.0132,0.0134,0.0143,0.0149,0.0144,0.0156,0.0147,0.0139,0.0133,0.0132,0.0095,0.0077,0.0047,0.0055,0.0048,0.0025,0.004,0.0001,-0.0003,-0.0008,-0.003,-0.0037,0.0044,0.0044,0.0044,0.0044,0,0.0127,0.0141,0.0147,0.0161,0.0166,0.0175,0.0172,0.0169,0.0165,0.0155,0.0134,0.0108,0.0083,0.0077,0.007,0.0033,0.003,0.0012,-0.0009,-0.001,-0.0032,-0.004,0.0046,0.0046,0.0045,0.0045,0,0,0.0123,0.0153,0.0155,0.0168,0.0179,0.0184,0.0184,0.0183,0.0177,0.016,0.0144,0.0118,0.0101,0.0084,0.0063,0.0024,-0.0014,0.0011,0.0008,-0.0013,-0.0107,-0.008,-0.0086,-0.0042,-0.0043,-0.0045,-0.0103,0,0.0134,0.0164,0.0171,0.0193,0.0212,0.0209,0.0211,0.0203,0.0193,0.0175,0.0134,0.0117,0.0102,0.0093,0.0048,-0.0001,-0.0037,0.0004,-0.0101,-0.0103,-0.0083,-0.0095,-0.005,-0.0109,-0.0111,-0.0113,-0.0114,0,0.0143,0.0165,0.02,0.0222,0.0229,0.0238,0.0242,0.0242,0.0212,0.02,0.0163,0.0134,0.008,0.0068,-0.0035,-0.0007,-0.0053,-0.0092,-0.0096,-0.009,-0.0092,-0.0114,-0.0128,-0.0127,-0.0126,-0.0125,-0.0124,0,0.015,0.0179,0.0213,0.0222,0.0248,0.0256,0.0265,0.0252,0.0253,0.0215,0.0206,0.0132,0.0102,0.0018,-0.0052,-0.0049,-0.0163,-0.0175,-0.0194,-0.0192,-0.0212,-0.0208,-0.0253,-0.0253,-0.0253,-0.0253,-0.0253,0,0.0163,0.0184,0.0222,0.0241,0.0271,0.0279,0.0298,0.0289,0.0276,0.0273,0.0222,0.0191,0.0086,0.0014,-0.0059,-0.0145,-0.0174,-0.0197,-0.0213,-0.0194,-0.0187,-0.0216,-0.0211,-0.0255,-0.0254,-0.0254,-0.0254,0,0.0169,0.0196,0.0232,0.0268,0.0281,0.0303,0.0332,0.0336,0.0326,0.0314,0.0305,0.023,0.0135,0.0037,-0.0093,-0.014,-0.0233,-0.0254,-0.0207,-0.0218,-0.0224,-0.0216,-0.0291,-0.029,-0.029,-0.029,-0.029,0,0.0178,0.0202,0.0254,0.0279,0.03,0.0336,0.0356,0.0362,0.0362,0.0334,0.0318,0.0241,0.018,0.0019,-0.0086,-0.0221,-0.0235,-0.0269,-0.0265,-0.0224,-0.0232,-0.0225,-0.0218,-0.0289,-0.0289,-0.0289,-0.0289,0,0.0189,0.021,0.0241,0.0297,0.033,0.0364,0.0388,0.0389,0.0387,0.0384,0.0329,0.0253,0.015,0.0022,-0.0071,-0.0172,-0.0244,-0.0267,-0.0268,-0.0265,-0.0223,-0.023,-0.0223,-0.0288,-0.0288,-0.0288,-0.0288,0,0.0193,0.0211,0.0255,0.0299,0.0343,0.0368,0.0385,0.0384,0.0388,0.0358,0.0338,0.0237,0.0181,0.0047,-0.0051,-0.0135,-0.0159,-0.0178,-0.0184,-0.0187,-0.0136,-0.0066,-0.0103,0,0,0,0,0,0.0198,0.0214,0.0251,0.0299,0.0343,0.037,0.0391,0.04,0.0398,0.0369,0.0357,0.0266,0.0132,0.0063,-0.002,-0.0059,-0.0183,-0.0157,-0.021,-0.0283,-0.0284,-0.024,0,0,0,0,0,0,0.0198,0.0233,0.0243,0.0288,0.0321,0.0365,0.0378,0.0381,0.0359,0.0351,0.0273,0.0263,0.0118,0.0182,-0.0015,-0.0042,-0.0082,-0.0216,-0.0218,-0.0283,-0.0284,-0.0284,-0.0239,0,0,0,0,0]}]]